Regional Weather Roundup
Issued by NWS

Home | Current Version | Previous Version | Graphics & Text | Print | Product List | Glossary Off
Versions: 1 2 3 4 5 6 7 8 9 10 11 12 13 14 15 16 17 18 19 20 21 22 23 24 25 26 27 28 29 30 31 32 33 34 35 36 37 38 39 40 41 42 43 44 45 46 47 48 49 50

000
ASUS43 KMPX 222210
RWRMN
WEATHER ROUNDUP FOR MINNESOTA
NATIONAL WEATHER SERVICE TWIN CITIES/CHANHASSEN MN
500 PM CDT TUE AUG 22 2017


NOTE: "FAIR" INDICATES FEW OR NO CLOUDS BELOW 12,000 FEET WITH NO
SIGNIFICANT WEATHER AND/OR OBSTRUCTIONS TO VISIBILITY. N/A MEANS
CURRENT SKY AND/OR WEATHER CONDITIONS ARE NOT AVAILABLE.

MNZ060>063-068>070-222300-
   Twin Cities Metro

CITY           SKY/WX    TMP DP  RH WIND       PRES   REMARKS
TWIN CITIES    PTSUNNY   74  45  35 NW20      30.03S
ST PAUL        PTSUNNY   72  45  37 NW17      30.02S
CRYSTAL        MOSUNNY   73  42  32 NW15      30.02S
BLAINE         MOSUNNY   75  46  35 W20G26    30.02F
LAKEVILLE      MOSUNNY   72  50  46 NW14G22   30.04S
EDEN PRAIRIE   MOSUNNY   75  46  35 NW16G25   30.03S
SOUTH ST PAUL  PTSUNNY   74  44  33 N13G22    30.02S
LAKE ELMO      FAIR      72  46  40 NW14G26   30.03S
$$
MNZ001>005-007-008-013>017-022>024-027-028-222300-
   Northwest Minnesota

CITY           SKY/WX    TMP DP  RH WIND       PRES   REMARKS
BEMIDJI        MOSUNNY   70  43  37 NW21G31   30.01F
HALLOCK        PTSUNNY   75  41  29 NW21G31   30.03R
ROSEAU         MOSUNNY   72  55  56 NW20G26   30.02R
WARROAD        SUNNY     64  57  77 NW12G20   30.01S
THIEF RVR FALL MOSUNNY   73  45  36 NW22G30   30.04S
CROOKSTON      SUNNY     75  43  31 N22G32    30.05S
FOSSTON        SUNNY     73  41  31 NW16G26   30.05S
DETROIT LAKES  SUNNY     70  41  35 NW14G22   30.07S
MOORHEAD       MOSUNNY   73  43  33 N13G22    30.07S
PARK RAPIDS    SUNNY     73  42  32 NW25G31   30.03F
MAHNOMEN       FAIR      71  42  34 NW16G28   30.05S
$$
MNZ006-009>011-018-025>026-222300-
   North Central Minnesota

CITY           SKY/WX    TMP DP  RH WIND       PRES   REMARKS
BAUDETTE       PTSUNNY   65  56  72 NW17G24   29.99R
FLAG ISLAND    MOSUNNY   64  50  59 N15       29.99S
INTL FALLS     PTSUNNY   64  54  69 NW12      29.94R
WASKISH        CLOUDY    61  57  88 NW12G17   29.99F
BIG FORK       MOSUNNY   66  52  59 W8        29.98S
LONGVILLE      MOSUNNY   70  46  43 W12G18    30.01F
GRAND RAPIDS   CLOUDY    67  48  50 NW17G23   30.00R
CRANE LAKE     PTSUNNY   64  55  72 NW6       29.93S
ORR            RAIN      61  54  77 NW5G16    29.91S
COOK           PTSUNNY   64  54  68 W12G17    29.94F
WALKER         FAIR      70  45  40 NW14G20   30.01F
$$
MNZ012-019>021-037-222300-
   Northeast Minnesota

CITY           SKY/WX    TMP DP  RH WIND       PRES   REMARKS
DULUTH         LGT RAIN  59  55  87 NW12G22   29.97R
ELY            LGT RAIN  59  55  88 CALM      29.92S
HIBBING        PTSUNNY   63  55  75 NW12G18   29.97R
EVELETH        MOSUNNY   64  46  52 W15G30    29.97R
DULUTH HARBOR  CLOUDY    70  54  56 NW21      29.96R
TWO HARBORS    PTSUNNY   66  55  68 NW12G21   29.91S
SILVER BAY     MOSUNNY   68  54  60 W8        29.89R
GRAND MARAIS     N/A     68  54  60 W8G18     29.84S
G MARAIS ARPRT MOSUNNY   61  46  59 W8G21     29.87S
$$
MNZ029>031-032-039>041-046>048-054>057-064-222300-
   West Central Minnesota

CITY           SKY/WX    TMP DP  RH WIND       PRES   REMARKS
FERGUS FALLS   MOSUNNY   72  48  43 NW13      30.07S
WHEATON        SUNNY     73  45  35 NW14      30.11S
MORRIS         MOSUNNY   73  46  38 NW13G22   30.09S
ALEXANDRIA     SUNNY     71  45  39 NW16G25   30.09F
ELBOW LAKE     FAIR      71  48  45 W13G20    30.09F
WADENA         MOSUNNY   72  45  37 NW15G22   30.05S
GLENWOOD       SUNNY     72  45  37 NW20G29   30.09S
APPLETON       SUNNY     73  43  33 NW13      30.10S
BENSON         SUNNY     73  43  33 N15G21    30.11S
ORTONVILLE     MOSUNNY   73  46  38 MISG      30.11S
MADISON        SUNNY     75  48  38 NW16G23   30.11S
WILLMAR        FAIR      72  48  43 NW13G20   30.10F
$$
MNZ033>034-036-042>043-049>051-058-059-222300-
   Central Minnesota

CITY           SKY/WX    TMP DP  RH WIND       PRES   REMARKS
ST CLOUD       MOSUNNY   72  48  42 NW17      30.04S
SAUK CENTRE    FAIR      73  47  39 NW15G25   30.07F
PAYNESVILLE    MOSUNNY   72  49  44 NW13      30.08F
AITKIN         MOSUNNY   68  46  45 NW7G18    30.00S
PINE RIVER     MOSUNNY   70  45  40 NW13      30.05S
BRAINERD       PTSUNNY   72  45  37 NW12G29   30.02S
STAPLES        MOSUNNY   70  39  32 NW13      30.04S
LONG PRAIRIE   FAIR      72  45  37 W15G25    30.06F
LITTLE FALLS   MOSUNNY   72  41  33 W17       30.04F
LITCHFIELD     SUNNY     73  46  38 W14G21    30.08S
BUFFALO        SUNNY     73  43  34 W13G20    30.06S
MAPLE LAKE     MOSUNNY   72  50  45 W9G22     30.06S
HUTCHINSON     MOSUNNY   73  50  45 W10G18    30.09S
$$
MNZ037-044-045-052-053-222300-
   East Central Minnesota

CITY           SKY/WX    TMP DP  RH WIND       PRES   REMARKS
PRINCETON      MOSUNNY   75  46  35 W12G24    30.03S
MORA           MOSUNNY   70  46  43 NW16G23   30.03S
CAMBRIDGE      SUNNY     75  54  46 W12G17    30.02S
RUSH CITY      PTSUNNY   69  49  47 NW6G16    30.02S HAZE
MOOSE LAKE     MOSUNNY   70  46  43 NW9       29.97S
HINCKLEY       CLOUDY    70  50  49 W6        30.00S
CLOQUET        PTSUNNY   66  46  48 NW13G22   29.97R
MCGREGOR       MOSUNNY   70  46  43 W18G26    30.00S
$$
MNZ071>073-080-081-089-090-097-098-222300-
   Southwest Minnesota

CITY           SKY/WX    TMP DP  RH WIND       PRES   REMARKS
MONTEVIDEO     SUNNY     75  48  38 N17       30.11S
GRANITE FALLS  SUNNY     74  48  40 W12G22    30.12F
CANBY          MOSUNNY   74  48  39 CALM      30.13S
MARSHALL       SUNNY     72  51  47 NW14      30.12S
REDWOOD FALLS  SUNNY     73  46  38 NW15G23   30.09F
OLIVIA         SUNNY     72  46  40 NW14G20   30.09S
PIPESTONE      SUNNY     73  43  33 NW9G23    30.15S
WINDOM         SUNNY     72  46  40 NW14G20   30.12S
WORTHINGTON    SUNNY     71  48  43 NW15      30.14F
JACKSON        SUNNY     70  46  43 NW13G22   30.13S
TRACY          SUNNY     72  51  47 NW14G21   30.13S
SLAYTON        SUNNY     71  43  35 NW14      30.15S
$$
MNZ065>067-074>077-082>085-091>093-222300-
   South Central Minnesota

CITY           SKY/WX    TMP DP  RH WIND       PRES   REMARKS
MANKATO        MOSUNNY   72  51  47 NW15G23   30.08S
NEW ULM        SUNNY     72  48  43 NW18G26   30.09S
ST JAMES       SUNNY     72  48  43 NW13G21   30.11S
FAIRMONT       SUNNY     72  49  44 NW14G22   30.11S
GLENCOE        MOSUNNY   72  51  48 NW14G22   30.07S
FARIBAULT      MOSUNNY   72  50  46 NW9G21    30.06S
OWATONNA       MOSUNNY   72  52  49 NW17G24   30.06F
WASECA         SUNNY     72  50  46 NW13G22   30.09S
ALBERT LEA     SUNNY     73  50  43 NW9G25    30.08S
$$
MNZ078>079-086>088-094>096-222300-
   Southeast Minnesota

CITY           SKY/WX    TMP DP  RH WIND       PRES   REMARKS
ROCHESTER      PTSUNNY   71  52  50 W20G29    30.05S
RED WING       MOSUNNY   75  45  33 NW12G18   30.00S
STANTON        SUNNY     73  49  42 NW15G22   30.03R
DODGE CENTER   MOSUNNY   72  48  43 NW17      30.06S
WINONA         MOSUNNY   73  48  40 NW10      30.01S
AUSTIN         MOSUNNY   72  48  43 NW14      30.06S
PRESTON        MOSUNNY   69  49  48 NW14      30.05F
$$
ABBREVIATIONS USED IN REMARKS
   TC - TEMPERATURES IN CELSIUS
  WCI - WIND CHILL INDEX
   HX - HEAT INDEX
  VSB - VISIBILITY
$$




USA.gov is the U.S. government's official web portal to all federal, state and local government web resources and services.